Powrót do katalogu

METEOR 2-11 DEB

AktywnyPO
NORAD 40706·DEBRIS·🇷🇺 Russia

Wystrzelony Jul 5, 1984 z Plesetsk Cosmodrome

Loading…

Następne Przeloty (najbliższe 24 godziny)

TLE

ŚwieżeSource: Space-Track

Epoka: Sep 13, 2026, 02:24 UTC

1 40706U 84072H   26256.10028417  .00002413  00000-0  16655-2 0  9997
2 40706  82.5208 296.6224 0015046  89.7774 270.5118 13.98772430601491

Śledź METEOR 2-11 DEB w czasie rzeczywistym z AllMySat

Download on the App Store